SCP
1 1 1 0 0 0 0 1 1 1 1 1 1 1 1 1 1 1 0 0 0 0 0 0 0 0 0 0 0 0 0 0 0 0 0 0 0 0 0 0 0 0 0
1 1 1 1 0 0 1 1 1 1 1 1 1 1 1 1 1 0 0 0 0 0 0 0 0 0 0 0 0 0 0 0 0 0 0 0 0 0 0 0 0 0 0
1 1 1 1 1 1 1 1 1 1 1 1 1 1 1 1 1 1 0 0 0 0 0 0 0 0 0 0 0 0 0 0 0 0 0 0 0 0 0 0 0 0 0
1 1 1 1 1 1 1 1 1 1 1 1 1 1 1 1 1 1 0 0 0 0 0 0 0 0 0 0 0 0 0 0 0 0 0 0 0 0 0 0 0 0 0
1 1 1 1 1 1 1 1 1 1 1 1 1 1 1 1 1 1 0 0 0 0 0 0 0 0 0 0 0 0 0 0 0 0 0 0 0 0 0 0 0 0 0
1 1 1 1 1 1 1 1 1 1 1 1 1 1 1 1 1 1 0 0 0 0 0 0 0 0 0 0 0 0 0 0 0 0 0 0 0 0 0 0 0 0 0
1 1 2 1 1 1 1 1 1 2 2 2 2 2 1 1 1 0 0 0 0 0 0 0 0 0 0 0 0 0 0 0 0 0 0 0 0 0 0 0 0 0 0
1 2 2 1 1 1 1 1 1 2 2 2 2 1 1 1 1 1 0 0 0 0 0 0 0 0 0 0 0 0 0 0 0 0 0 0 0 0 0 0 0 0 0
2 2 2 1 1 1 1 1 2 2 2 2 2 1 1 1 1 1 0 0 1 1 0 0 0 0 0 1 1 0 0 0 0 0 0 0 0 0 0 0 0 0 0
2 2 2 2 2 1 1 1 1 2 2 2 2 1 1 1 1 1 1 1 1 1 1 1 0 0 1 1 1 1 1 0 0 0 0 1 1 1 0 0 0 0 0
2 3 3 3 3 2 2 1 1 1 2 2 2 2 2 1 1 1 1 1 1 1 1 1 1 1 1 1 1 1 1 1 0 1 1 1 1 1 1 1 0 0 0
3 3 3 3 4 3 2 2 2 2 2 2 2 2 2 2 2 2 2 2 2 1 1 1 1 1 1 1 1 1 1 1 1 1 1 2 1 1 1 1 1 1 1
4 4 4 3 3 3 2 2 2 2 2 2 2 2 2 2 2 2 3 2 2 2 2 2 2 2 1 1 1 1 1 1 1 1 2 2 1 1 1 1 1 1 1
4 4 3 2 2 2 2 2 3 3 3 3 3 2 3 3 3 3 4 3 3 3 3 3 3 3 2 2 2 2 2 2 2 2 2 2 1 1 1 1 1 1 1
3 3 2 2 2 2 2 2 3 3 3 3 3 2 3 4 4 5 4 4 3 3 4 4 4 3 3 2 2 2 2 2 2 3 2 2 2 1 1 1 1 1 1
3 3 2 2 2 3 3 3 2 3 3 3 3 2 3 3 4 5 4 4 4 4 4 4 3 3 2 2 2 2 2 2 2 2 2 2 2 2 2 2 1 1 2
4 4 3 3 3 3 3 2 2 2 2 3 2 2 2 2 3 3 3 3 4 4 4 3 3 2 2 2 2 2 2 2 2 2 2 2 2 2 2 2 2 2 2
5 4 3 3 3 2 2 2 2 2 2 2 2 2 2 2 2 2 3 3 3 3 3 3 3 2 2 2 2 2 2 2 2 2 2 2 2 2 2 2 2 2 3
5 5 4 3 3 2 2 2 2 2 2 2 2 2 2 2 2 2 2 2 2 2 3 3 3 3 3 2 2 2 2 3 2 2 2 2 2 2 2 2 2 3 3
5 5 4 3 3 2 2 2 2 2 2 2 2 2 2 1 1 1 1 1 2 2 2 2 3 3 3 3 3 3 3 3 2 2 2 2 1 2 2 2 2 3 3
5 5 4 4 3 3 3 3 2 2 2 2 1 1 1 1 1 1 1 1 1 2 2 2 2 2 3 3 3 3 2 2 2 2 2 2 1 1 2 2 2 3 3
4 4 4 3 3 3 3 3 3 2 2 1 1 1 1 1 1 1 1 1 2 2 2 2 2 2 2 2 2 2 1 1 1 1 1 2 1 1 2 2 2 2 3
2 2 3 3 3 2 2 2 2 2 1 1 1 1 1 1 1 1 1 1 1 2 2 1 1 1 1 1 2 1 1 1 1 1 1 1 1 1 1 2 2 2 2
1 2 2 3 2 2 2 2 2 1 1 1 1 2 1 1 1 1 1 1 1 1 1 1 1 1 1 1 1 1 1 1 1 1 1 1 1 1 1 1 1 2 2
1 2 2 2 2 2 2 2 1 1 1 1 1 2 1 1 1 1 1 1 1 1 1 1 1 1 1 1 1 1 1 1 1 1 1 1 1 1 1 1 1 2 2
1 2 2 2 2 2 2 2 1 1 1 1 1 1 1 1 1 1 1 1 1 1 1 1 1 1 1 1 1 1 1 1 1 1 1 1 1 1 1 1 1 1 1
Wind_Speed
13 17 18 13 12 12 12 12 13 13 13 13 13 13 12 12 11 10 9 8 7 7 6 6 6 7 7 7 8 8 9 9 9 9 10 10 11 11 11 11 11 13 14
15 18 18 13 12 12 12 11 11 12 12 12 12 12 12 11 10 10 9 8 7 6 5 5 6 6 7 7 8 8 8 8 8 9 10 11 11 10 10 7 5 12 13
17 18 17 13 12 12 11 11 11 11 12 12 12 11 11 10 10 9 8 7 6 5 5 5 5 6 6 6 7 7 7 7 7 7 8 9 11 9 9 8 13 14 13
17 17 16 15 12 12 12 11 11 11 11 11 11 11 10 10 9 8 7 6 5 5 5 5 5 5 5 6 6 6 6 6 6 6 6 7 10 11 9 10 12 12 13
15 15 16 15 13 12 12 11 11 11 11 10 10 10 9 9 8 7 7 6 5 5 5 4 4 5 5 5 5 5 5 6 5 8 4 6 8 11 9 10 11 11 12
15 14 17 14 13 12 12 11 10 10 10 10 9 9 8 8 7 7 6 6 5 5 4 4 4 4 5 5 4 4 4 5 9 5 5 5 8 10 10 10 11 11 11
15 14 17 14 13 12 11 11 11 10 10 9 9 8 7 7 7 6 6 5 5 4 4 4 4 4 5 5 5 4 4 5 8 3 4 4 8 10 9 10 10 11 11
14 14 16 14 12 12 11 11 10 10 10 9 9 8 7 7 6 6 6 6 5 5 5 4 4 5 5 5 5 5 5 8 7 5 4 4 11 8 9 9 10 10 11
12 12 13 14 12 12 10 10 10 9 9 9 8 8 7 7 7 7 7 7 7 6 6 6 6 6 6 6 6 6 6 7 10 4 5 5 11 9 9 10 10 11 11
11 11 11 11 11 11 11 11 10 9 9 9 8 7 7 7 8 8 9 9 7 7 7 7 7 7 7 8 8 8 8 8 11 7 5 7 12 10 10 10 11 11 11
9 8 9 10 9 8 8 10 10 10 9 9 9 9 8 7 8 8 9 6 7 8 7 7 8 8 8 10 11 10 9 9 11 7 5 10 12 11 12 12 12 12 13
10 9 7 6 6 5 5 6 6 6 7 7 5 6 6 4 4 5 3 4 7 8 8 9 8 9 10 8 11 12 8 11 9 7 5 13 11 12 13 13 13 14 14
9 8 7 5 5 5 3 3 3 3 3 4 4 4 4 4 4 4 3 4 6 8 7 6 7 7 7 6 5 7 9 8 6 6 6 14 12 13 14 14 15 15 16
7 6 5 5 5 4 3 2 2 3 2 3 2 4 3 3 4 4 3 3 3 3 3 4 4 5 7 7 7 8 9 8 7 6 5 13 13 14 15 15 16 17 17
7 6 5 4 4 4 3 2 2 2 2 3 2 3 4 4 4 4 3 3 4 3 4 5 5 5 6 7 8 9 10 11 10 9 5 11 14 15 16 17 17 18 19
6 6 5 5 5 4 3 3 2 3 2 2 2 2 4 4 4 4 4 4 4 4 4 4 5 5 6 6 8 9 10 11 9 10 10 10 15 16 17 18 18 18 19
6 6 5 5 4 4 3 3 3 3 2 2 1 2 3 4 4 4 4 4 4 4 4 5 5 5 6 6 7 9 9 10 10 11 11 9 10 16 18 19 18 18 19
5 5 4 3 4 4 3 3 3 2 2 1 1 1 2 3 4 4 4 4 3 4 4 4 6 6 6 6 6 7 7 7 10 11 11 11 10 10 15 20 19 18 19
5 4 4 3 3 3 3 3 3 2 2 2 1 1 2 3 4 4 4 3 4 4 4 6 5 5 6 6 7 7 7 8 8 10 11 12 12 11 11 13 20 20 21
5 4 3 3 2 2 2 2 2 2 2 1 1 1 2 2 3 4 4 3 6 5 5 5 5 5 6 6 8 7 8 8 8 9 10 10 11 13 14 13 12 15 21
5 5 3 3 3 2 1 2 2 2 1 1 2 1 2 3 3 4 5 4 5 5 6 7 6 7 7 5 7 8 8 9 8 7 8 8 10 11 12 12 11 10 11
5 4 4 3 3 2 1 2 2 2 2 2 2 1 3 3 4 4 4 6 5 5 7 7 6 7 7 6 6 8 8 7 6 6 6 7 8 7 10 12 11 11 10
5 4 3 2 2 2 2 3 2 3 4 4 3 3 3 4 5 5 6 7 6 8 7 6 7 9 8 7 6 7 7 7 5 5 5 6 5 6 7 8 11 11 12
5 4 3 3 3 3 4 4 5 5 6 5 4 4 4 5 6 6 7 7 7 8 7 8 7 7 8 8 7 7 8 8 7 7 6 5 5 6 7 7 8 9 10
4 3 3 3 3 3 3 4 5 6 6 5 5 5 6 6 6 7 7 7 7 8 8 8 8 8 8 9 8 7 7 7 9 9 9 7 7 6 6 7 7 7 8
3 3 3 3 2 2 3 4 5 6 7 7 7 7 7 6 5 6 7 7 8 8 8 8 9 10 9 9 9 8 8 8 8 8 9 9 8 7 6 5 6 6 6
Wind_Direction
152 141 141 152 154 152 150 152 156 156 156 155 153 152 151 149 147 145 142 138 131 124 111 97 89 89 92 92 93 99 106 108 110 111 112 113 118 120 124 133 148 118 118
145 139 142 150 152 151 149 147 148 151 154 155 153 151 152 151 150 147 145 142 137 130 117 103 93 89 90 93 96 101 108 114 116 119 126 125 121 122 128 134 101 112 128
143 139 148 147 149 148 146 143 143 144 148 150 151 151 151 151 151 150 149 147 146 141 128 114 103 98 97 100 104 109 114 118 122 137 171 144 123 125 124 112 106 124 130
143 144 151 143 147 146 143 142 141 142 143 144 146 148 150 151 152 153 155 156 157 153 141 131 122 114 111 112 115 119 122 124 131 188 188 128 130 126 132 127 126 132 134
140 142 138 148 149 148 144 142 141 141 141 142 144 146 149 153 156 160 163 166 170 168 159 151 141 132 128 126 126 131 135 137 167 227 117 121 120 131 142 140 138 137 138
144 148 140 154 152 151 148 145 142 142 143 145 146 148 153 158 164 169 171 174 178 180 177 167 159 150 146 146 147 148 153 169 216 175 131 146 128 142 151 150 148 146 144
149 146 143 154 154 155 154 152 151 150 151 152 154 157 162 168 177 183 185 186 188 191 189 181 177 171 167 169 171 173 181 213 253 151 157 146 118 142 161 160 157 154 152
150 148 139 152 157 159 161 162 160 159 159 161 164 169 175 181 189 196 201 204 205 208 207 201 198 193 188 189 192 195 206 242 234 192 187 142 117 155 171 170 166 164 161
152 146 150 159 162 164 166 170 169 167 168 171 175 181 188 197 203 211 215 220 222 223 220 218 217 214 204 203 207 211 219 244 267 221 196 159 137 170 185 182 177 175 173
154 154 156 163 163 172 173 174 176 176 178 179 183 191 200 210 215 218 225 217 230 235 233 232 230 225 218 213 214 218 224 235 245 229 209 151 148 183 197 194 189 187 184
157 159 166 165 167 180 179 166 180 183 186 191 195 196 210 224 220 209 228 201 229 242 241 240 241 238 232 218 217 219 224 239 233 235 217 135 160 192 204 203 200 196 194
164 169 170 174 161 187 188 168 196 198 186 212 211 204 220 236 254 255 154 207 241 248 248 240 243 241 240 231 205 207 230 235 251 234 195 142 172 200 209 209 206 203 201
166 172 171 170 167 191 190 198 209 220 200 218 220 228 243 249 246 250 232 207 228 237 243 227 230 240 242 249 248 223 240 248 243 245 205 157 182 207 216 214 211 208 206
161 168 174 172 176 191 207 216 230 233 225 240 219 243 247 253 258 257 250 246 238 236 243 252 250 252 259 257 250 251 249 247 250 249 218 171 191 210 220 222 217 212 209
161 173 173 184 187 193 198 235 248 266 265 250 256 250 257 253 257 259 255 258 258 249 237 242 251 254 260 260 254 247 249 247 247 249 236 190 200 211 221 225 225 220 214
161 166 174 191 190 191 201 211 236 257 247 260 239 249 258 258 262 262 251 251 257 262 274 268 263 262 260 261 261 259 256 254 249 246 248 222 207 211 219 225 227 225 220
153 154 170 181 184 194 215 227 226 232 237 243 240 238 253 263 264 265 260 254 260 265 259 261 272 269 262 260 258 259 255 253 252 247 249 249 231 214 215 221 224 225 223
140 147 164 168 161 180 200 228 240 248 244 253 251 246 247 261 264 271 272 273 271 263 261 260 259 264 265 268 266 264 260 253 251 251 250 245 245 240 216 215 219 221 223
132 143 155 154 160 177 192 215 221 228 249 249 238 247 252 263 266 264 274 287 267 262 262 266 271 276 276 274 270 258 259 256 251 248 247 248 243 242 241 213 211 218 222
136 141 150 159 156 176 194 203 226 224 227 246 266 289 283 277 275 283 272 276 277 270 265 267 276 268 274 274 276 277 269 267 259 252 249 246 243 240 239 238 219 216 217
142 136 147 164 157 189 209 245 241 236 242 238 246 275 282 292 293 286 294 290 276 277 280 280 276 269 266 272 272 268 260 250 250 253 249 255 251 246 244 240 234 231 215
147 149 166 177 177 211 191 279 291 301 282 286 292 275 278 287 292 284 301 292 286 287 272 272 270 279 278 265 272 283 278 262 227 243 243 242 254 257 251 243 236 232 238
158 169 170 173 204 229 238 244 242 240 250 243 254 251 271 288 289 301 298 296 303 286 280 282 275 265 273 271 261 272 283 287 302 264 258 258 262 266 260 253 241 233 230
173 178 181 202 223 234 243 260 275 283 291 306 295 296 291 278 285 289 289 289 288 289 290 274 269 276 268 269 259 252 265 290 288 285 267 256 253 259 266 264 257 241 233
186 188 189 201 224 242 262 269 274 282 293 293 298 293 288 283 278 282 287 291 287 282 286 291 291 278 273 269 272 264 257 254 252 265 277 282 273 264 259 258 256 252 244
194 198 196 191 215 244 262 275 281 294 298 302 298 297 288 284 280 281 285 284 281 283 283 276 275 269 268 276 276 273 265 261 260 263 269 271 274 275 277 274 263 255 247